Regional Weather Roundup
Issued by NWS

Home | Current Version | Previous Version | Graphics & Text | Print | Product List | Glossary On
Versions: 1 2 3 4 5 6 7 8 9 10 11 12 13 14 15 16 17 18 19 20 21 22 23 24 25 26 27 28 29 30 31 32 33 34 35 36 37 38 39 40 41 42 43 44 45 46 47 48 49 50
000
ASUS43 KFSD 231302
RWRSD

WEATHER ROUNDUP FOR SOUTH DAKOTA
NATIONAL WEATHER SERVICE SIOUX FALLS SD
800 AM CDT WED AUG 23 2017

NOTE: "FAIR" INDICATES FEW OR NO CLOUDS BELOW 12,000 FEET WITH NO
SIGNIFICANT WEATHER AND/OR OBSTRUCTIONS TO VISIBILITY.


SDZ001>005-009-010-012>017-231400-
NORTHWEST AND NORTH CENTRAL SOUTH DAKOTA

CITY           SKY/WX    TMP DP  RH WIND       PRES   REMARKS
BUFFALO          N/A     53  48  83 NE6       30.02R
FAITH            N/A     57  52  83 SE8       30.05S
MOBRIDGE       SUNNY     59  46  62 E9        30.06S
$$

SDZ012>016-024>037-041>051-057-063-072>074-231400-
SOUTHWEST AND SOUTH CENTRAL SOUTH DAKOTA

CITY           SKY/WX    TMP DP  RH WIND       PRES   REMARKS
RAPID CTY ARPT CLEAR     57  50  77 CALM      30.06R
PIERRE         SUNNY     60  52  74 SE12      30.05S
CUSTER         CLEAR     59  49  69 VRB6      30.19R
ELLSWORTH AFB  CLEAR     59  50  71 CALM      30.05R
PHILIP         CLEAR     60  52  74 NE5       30.03S
PINE RIDGE     CLEAR     62  51  67 SW8       30.09S
SPEARFISH      FAIR      57  50  77 CALM      30.10R
WINNER         FAIR      64  55  72 S7        30.09S
$$

SDZ004>011-016>023-039-040-231400-
NORTHEAST SOUTH DAKOTA

CITY           SKY/WX    TMP DP  RH WIND       PRES   REMARKS
ABERDEEN       SUNNY     49  47  93 SE5       30.11S
WATERTOWN      SUNNY     53  52  96 CALM      30.13S
BROOKINGS      SUNNY     54  51  90 CALM      30.15S
SISSETON         N/A     53  50  89 E5        30.11R
$$

SDZ017-020-022-023-036>040-048>070-231400-
SOUTHEAST SOUTH DAKOTA

CITY           SKY/WX    TMP DP  RH WIND       PRES   REMARKS
SIOUX FALLS    MOSUNNY   57  55  93 CALM      30.15S
HURON          SUNNY     55  50  83 SE6       30.12R
CHAMBERLAIN    SUNNY     58  56  95 E6        30.10S
MITCHELL       SUNNY     57  54  89 S3        30.13S
YANKTON        SUNNY     55  54  96 CALM      30.15S
$$

ABBREVIATIONS USED IN REMARKS
   TC - TEMPERATURE IN CELSIUS
  WCI - WIND CHILL INDEX
   HX - HEAT INDEX
  VSB - VISIBILITY




USA.gov is the U.S. government's official web portal to all federal, state and local government web resources and services.